AURORASAT (56312 NORAD) Tracking and Keplerian Element Data

This shows tracking and keplerian element data for the satellite.

Feedback or suggestion? Click here.




ElementValue
Catalog56312
NameAURORASAT
Epoch Orbit196
Epoch Day126.85031014
Epoch Year2023
RAAN173.2611
Inclination51.6378
Eccentricity0.0007895
Argument of Perigee317.4964
Mean Anonmoly42.5413
Mean Motion15.52362648
Decay Rate0.00064605
L11 56312U 98067VD 23126.85031014 .00064605 00000+0 10384-2 0 9991
L22 56312 51.6378 173.2611 0007895 317.4964 42.5413 15.52362648 1960



Live tracking and technical data element details for AURORASAT (NORAD 56312). AURORASAT can be tracked NOW for your location showing map with azimuth and elevation plus other details from your city location.







IsCatalogInMostPopularTable: catalog: 56312, numindb: 5
Update: records affected: 1



GetName: 56312 AURORASAT

Hit Count: updated at: Wed, 07 Jun 2023 09:57:05 GMT